Russell, KS

1:10 AM CDT on October 20, 2017 (GMT -0500)
Russell Municipal

Weather History for KRSL - March, 2014

Change the Weather History Date:

Tuesday, March 11, 2014

  Actual Average Record
Temperature  
Mean Temperature 44 °F -  
Max Temperature 54 °F 54 °F 89 °F (1972)
Min Temperature 35 °F 31 °F 1 °F (1998)
Degree Days  
Heating Degree Days 22    
Moisture  
Dew Point 31 °F    
Average Humidity 63    
Maximum Humidity 93    
Minimum Humidity 32    
Precipitation  
Precipitation 0.01 in - - ()
Sea Level Pressure  
Sea Level Pressure 29.73 in    
Wind  
Wind Speed 21 mph (NNW)    
Max Wind Speed 36 mph    
Max Gust Speed 50 mph    
Visibility 10 miles    
Events Snow    
Averages and records for this station are not official NWS values.
T = Trace of Precipitation, MM = Missing Value Source: NWS Daily Summary

Daily Weather History Graph

Daily Weather History Graph

Search for Another Location

Airport or City:

Trip Planner

Search our weather history database for the weather conditions in past years. The results will help you decide how hot, cold, wet, or windy it might be!

Date:

Astronomy

Mar. 11, 2014 Rise Set
Actual Time 7:52 AM CDT 7:38 PM CDT
Civil Twilight 7:26 AM CDT 8:04 PM CDT
Nautical Twilight 6:55 AM CDT 8:35 PM CDT
Astronomical Twilight 6:24 AM CDT 9:06 PM CDT
Moon 3:18 PM CDT (3/11) 4:45 AM CDT (3/11)
Length of Visible Light 12h 38m
Length of Day
11h 45m
Waxing Gibbous, 78% of the Moon is Illuminated
Mar 11
Waxing Gibbous
Mar 16
Full
Mar 23
Last Quarter
Mar 30
New
Apr 7
First Quarter

Hourly Weather History & Observations

Time (CDT) Temp. Windchill Dew Point Humidity Pressure Visibility Wind Dir Wind Speed Gust Speed Precip Events Conditions
12:53 AM 51.1 °F - 23.0 °F 33% 29.56 in 10.0 mi South 15.0 mph - N/A   Clear
1:53 AM 52.0 °F - 23.0 °F 32% 29.51 in 10.0 mi South 17.3 mph - N/A   Clear
2:53 AM 50.0 °F - 24.1 °F 36% 29.48 in 10.0 mi South 17.3 mph - N/A   Clear
3:53 AM 48.0 °F - 25.0 °F 41% 29.44 in 10.0 mi South 15.0 mph - N/A   Clear
4:53 AM 44.1 °F 40.1 °F 26.1 °F 49% 29.42 in 10.0 mi SW 6.9 mph - N/A   Clear
5:53 AM 43.0 °F 36.4 °F 27.0 °F 53% 29.40 in 10.0 mi SSW 12.7 mph - N/A   Clear
6:53 AM 39.0 °F 30.6 °F 27.0 °F 62% 29.40 in 10.0 mi SW 15.0 mph - N/A   Clear
7:53 AM 39.9 °F 32.9 °F 27.0 °F 60% 29.41 in 10.0 mi SW 11.5 mph - N/A   Clear
8:53 AM 42.1 °F 37.1 °F 28.0 °F 58% 29.42 in 10.0 mi SW 8.1 mph - N/A   Clear
9:53 AM 48.0 °F - 26.1 °F 42% 29.43 in 10.0 mi WNW 9.2 mph - N/A   Clear
10:53 AM 51.1 °F - 28.0 °F 41% 29.48 in 10.0 mi North 29.9 mph 38.0 mph N/A   Clear
11:53 AM 48.0 °F - 36.0 °F 63% 29.55 in 10.0 mi North 29.9 mph 40.3 mph N/A   Clear
12:22 PM 48.0 °F - 37.0 °F 66% 29.57 in 10.0 mi North 32.2 mph 42.6 mph N/A   Mostly Cloudy
12:53 PM 48.9 °F - 34.0 °F 56% 29.60 in 10.0 mi North 33.4 mph 44.9 mph N/A   Overcast
1:17 PM 50.0 °F - 32.0 °F 50% 29.60 in 10.0 mi North 31.1 mph 46.0 mph N/A   Scattered Clouds
1:53 PM 50.0 °F - 32.0 °F 50% 29.62 in 10.0 mi North 33.4 mph 46.0 mph N/A   Partly Cloudy
2:53 PM 51.1 °F - 33.1 °F 50% 29.65 in 10.0 mi North 35.7 mph 43.7 mph N/A   Overcast
3:53 PM 46.9 °F - 33.1 °F 59% 29.74 in 10.0 mi North 33.4 mph 44.9 mph N/A   Overcast
4:53 PM 45.0 °F 34.9 °F 33.1 °F 63% 29.83 in 10.0 mi North 32.2 mph 43.7 mph N/A   Overcast
5:23 PM 45.0 °F 34.9 °F 32.0 °F 60% 29.82 in 10.0 mi North 32.2 mph 43.7 mph N/A   Overcast
5:50 PM 44.6 °F 35.1 °F 33.8 °F 66% 29.84 in 10.0 mi North 27.6 mph 47.2 mph N/A   Overcast
5:53 PM 45.0 °F 35.6 °F 33.1 °F 63% 29.87 in 10.0 mi North 27.6 mph 44.9 mph N/A   Overcast
6:53 PM 39.9 °F 28.4 °F 33.1 °F 77% 29.96 in 10.0 mi North 29.9 mph 46.0 mph N/A   Overcast
7:05 PM 39.9 °F 28.4 °F 33.1 °F 77% 29.94 in 10.0 mi North 29.9 mph 43.7 mph N/A   Overcast
7:27 PM 37.0 °F 24.3 °F 34.0 °F 89% 29.98 in 5.0 mi North 31.1 mph 49.5 mph 0.00 in Snow Light Snow
7:53 PM 36.0 °F 23.7 °F 33.1 °F 89% 30.05 in 9.0 mi North 26.5 mph 34.5 mph 0.01 in Snow Light Snow
8:06 PM 36.0 °F 23.9 °F 34.0 °F 93% 30.02 in 10.0 mi North 25.3 mph 32.2 mph 0.00 in   Overcast
8:53 PM 37.0 °F 24.3 °F 33.1 °F 86% 30.09 in 10.0 mi North 31.1 mph 42.6 mph 0.00 in   Overcast
9:02 PM 36.0 °F 22.4 °F 32.0 °F 86% 30.05 in 10.0 mi North 33.4 mph 46.0 mph 0.00 in   Overcast
9:53 PM 35.1 °F 24.8 °F 30.9 °F 85% 30.14 in 10.0 mi North 17.3 mph - 0.00 in   Mostly Cloudy
10:53 PM 35.1 °F 27.4 °F 32.0 °F 89% 30.18 in 10.0 mi NNW 10.4 mph - N/A   Overcast
11:53 PM 37.0 °F 28.9 °F 32.0 °F 82% 30.19 in 10.0 mi NNW 12.7 mph - N/A   Overcast